Precipitable_Water
1.34 1.14 1.26 1.20 0.72 0.64 0.47 0.51 0.57 0.57 0.68 0.90 0.96 0.84 0.78 0.94 0.82 0.73 1.34 1.38 1.49 1.39 1.42 1.43 1.37 1.36 1.33 1.29 1.27 1.27 1.27 1.26 1.24 1.25 1.27 1.30 1.31 1.29 1.26 1.21 1.19 1.18 1.18 1.16 1.17 1.20 1.23 1.25 1.28
0.94 1.25 1.10 1.01 0.62 0.53 0.47 0.57 0.53 0.61 0.83 0.96 0.96 0.97 0.86 0.81 1.14 1.14 1.10 1.39 1.43 1.33 1.40 1.40 1.36 1.35 1.33 1.31 1.31 1.32 1.29 1.30 1.29 1.21 1.16 1.13 1.11 1.09 1.07 1.04 1.00 0.96 0.96 1.01 1.04 1.06 1.13 1.20 1.24
0.65 1.17 0.93 0.71 0.65 0.49 0.52 0.55 0.59 0.81 0.90 0.86 0.84 1.03 0.95 0.89 1.14 1.18 1.32 1.41 1.40 1.32 1.40 1.39 1.40 1.39 1.36 1.37 1.35 1.30 1.30 1.19 1.05 0.97 0.90 0.84 0.82 0.82 0.78 0.72 0.71 0.72 0.73 0.76 0.78 0.78 0.79 0.84 0.94
0.51 0.80 0.97 0.60 0.53 0.63 0.66 0.66 0.70 0.77 0.89 0.96 0.90 0.78 1.09 1.25 1.19 1.36 1.41 1.33 1.32 1.32 1.39 1.39 1.44 1.43 1.42 1.37 1.35 1.27 1.13 0.95 0.85 0.76 0.69 0.64 0.59 0.54 0.50 0.50 0.52 0.54 0.56 0.56 0.58 0.59 0.61 0.63 0.66
0.59 0.65 0.55 0.60 0.53 0.67 0.71 0.81 0.76 0.71 0.77 0.85 0.84 0.77 0.91 1.24 1.39 1.45 1.43 1.34 1.30 1.35 1.41 1.43 1.49 1.45 1.39 1.31 1.21 1.09 0.92 0.78 0.68 0.59 0.51 0.47 0.45 0.48 0.51 0.52 0.54 0.55 0.55 0.55 0.55 0.55 0.55 0.56 0.56
0.44 0.56 0.34 0.42 0.55 0.63 0.77 0.84 0.83 0.78 0.86 0.90 0.80 0.82 0.95 1.36 1.36 1.46 1.52 1.44 1.36 1.32 1.39 1.43 1.46 1.39 1.29 1.19 1.04 0.83 0.71 0.61 0.50 0.46 0.45 0.44 0.48 0.52 0.53 0.53 0.53 0.55 0.54 0.56 0.56 0.57 0.57 0.59 0.60
0.41 0.39 0.28 0.39 0.54 0.57 0.74 0.87 0.80 0.82 0.83 0.84 0.96 0.73 1.02 1.23 1.41 1.50 1.52 1.55 1.45 1.35 1.33 1.37 1.34 1.27 1.17 0.98 0.79 0.68 0.56 0.49 0.49 0.47 0.48 0.49 0.50 0.52 0.54 0.52 0.52 0.56 0.55 0.57 0.58 0.58 0.57 0.59 0.59
0.49 0.43 0.30 0.37 0.39 0.54 0.74 0.84 0.86 0.86 0.85 1.12 1.10 0.75 0.84 1.18 1.44 1.49 1.55 1.56 1.51 1.38 1.31 1.29 1.23 1.14 0.93 0.80 0.65 0.54 0.52 0.51 0.50 0.50 0.48 0.49 0.50 0.54 0.54 0.52 0.52 0.55 0.55 0.58 0.58 0.57 0.58 0.57 0.57
0.57 0.33 0.26 0.32 0.36 0.55 0.78 0.79 0.92 1.07 0.98 1.09 1.12 1.05 1.13 1.34 1.41 1.39 1.42 1.46 1.42 1.33 1.27 1.23 1.04 0.90 0.81 0.72 0.59 0.55 0.54 0.53 0.52 0.49 0.47 0.46 0.49 0.50 0.49 0.51 0.52 0.52 0.55 0.55 0.56 0.56 0.56 0.54 0.54
0.44 0.31 0.29 0.41 0.49 0.53 0.77 0.79 0.90 0.97 0.98 1.01 1.09 1.26 1.35 1.34 1.29 1.24 1.25 1.29 1.30 1.22 1.12 1.08 0.97 0.88 0.77 0.66 0.56 0.55 0.53 0.52 0.52 0.49 0.47 0.45 0.47 0.48 0.48 0.49 0.50 0.51 0.54 0.52 0.52 0.52 0.53 0.53 0.53
0.42 0.32 0.38 0.43 0.51 0.60 0.75 0.82 0.89 0.93 0.88 1.01 0.98 1.13 1.19 1.22 1.24 1.25 1.30 1.29 1.25 1.23 1.12 1.02 0.93 0.85 0.74 0.58 0.54 0.55 0.53 0.53 0.52 0.48 0.44 0.42 0.44 0.46 0.46 0.47 0.48 0.51 0.49 0.45 0.48 0.49 0.51 0.51 0.54
0.33 0.43 0.40 0.42 0.53 0.56 0.65 0.82 0.85 0.92 0.93 1.10 1.18 1.17 1.19 1.17 1.19 1.26 1.28 1.31 1.29 1.22 1.14 1.10 1.02 0.87 0.72 0.56 0.54 0.52 0.51 0.51 0.49 0.45 0.43 0.43 0.44 0.43 0.42 0.45 0.46 0.47 0.45 0.41 0.45 0.48 0.47 0.48 0.53
0.41 0.39 0.41 0.43 0.52 0.55 0.67 0.73 0.77 0.82 0.98 1.11 1.20 1.16 1.15 1.18 1.22 1.32 1.38 1.38 1.30 1.21 1.15 1.11 1.04 0.84 0.65 0.55 0.54 0.52 0.51 0.51 0.47 0.43 0.44 0.45 0.43 0.42 0.45 0.45 0.45 0.44 0.42 0.43 0.44 0.42 0.37 0.37 0.48
0.51 0.46 0.36 0.42 0.47 0.52 0.57 0.69 0.77 0.83 1.02 1.02 1.09 1.10 1.13 1.14 1.17 1.26 1.33 1.32 1.27 1.22 1.14 1.09 1.00 0.82 0.65 0.56 0.53 0.51 0.51 0.50 0.47 0.44 0.45 0.45 0.45 0.45 0.44 0.43 0.42 0.41 0.43 0.45 0.45 0.40 0.35 0.33 0.43
0.58 0.45 0.38 0.40 0.46 0.48 0.59 0.62 0.63 0.84 1.04 0.94 1.02 1.09 1.08 1.10 1.18 1.18 1.28 1.27 1.22 1.18 1.11 1.05 0.96 0.83 0.67 0.57 0.54 0.52 0.51 0.50 0.46 0.43 0.45 0.46 0.47 0.45 0.43 0.43 0.42 0.43 0.44 0.43 0.44 0.41 0.37 0.32 0.34
0.51 0.40 0.29 0.38 0.41 0.54 0.57 0.45 0.64 0.81 0.91 0.94 0.96 1.03 1.03 1.01 1.14 1.23 1.26 1.25 1.22 1.16 1.09 1.03 0.95 0.84 0.69 0.58 0.56 0.54 0.52 0.49 0.45 0.44 0.46 0.48 0.47 0.47 0.44 0.43 0.44 0.46 0.44 0.42 0.40 0.39 0.35 0.32 0.30
0.47 0.27 0.29 0.33 0.42 0.49 0.52 0.46 0.63 0.76 0.75 0.77 0.93 0.96 0.99 0.96 1.12 1.16 1.22 1.24 1.18 1.14 1.06 0.96 0.91 0.81 0.68 0.61 0.58 0.55 0.53 0.48 0.44 0.45 0.45 0.47 0.47 0.46 0.45 0.46 0.48 0.47 0.44 0.42 0.41 0.39 0.39 0.33 0.29
0.32 0.30 0.31 0.30 0.37 0.49 0.46 0.44 0.58 0.69 0.72 0.76 0.83 0.94 1.00 0.93 0.98 1.08 1.15 1.15 1.14 1.09 1.02 0.93 0.87 0.79 0.70 0.62 0.58 0.55 0.52 0.48 0.46 0.45 0.46 0.47 0.46 0.46 0.46 0.50 0.48 0.47 0.45 0.42 0.41 0.38 0.41 0.38 0.33
0.43 0.34 0.31 0.34 0.42 0.45 0.49 0.49 0.55 0.64 0.66 0.72 0.77 0.75 0.79 0.86 1.00 1.07 1.07 1.06 1.01 0.97 0.91 0.87 0.79 0.72 0.65 0.57 0.53 0.50 0.46 0.46 0.46 0.48 0.49 0.47 0.46 0.47 0.49 0.51 0.47 0.48 0.45 0.44 0.44 0.42 0.40 0.37 0.38
0.41 0.33 0.32 0.36 0.43 0.45 0.46 0.47 0.57 0.53 0.51 0.59 0.66 0.73 0.80 0.86 0.87 0.93 0.95 0.94 0.89 0.86 0.85 0.83 0.74 0.65 0.60 0.59 0.57 0.54 0.50 0.47 0.48 0.50 0.48 0.47 0.47 0.51 0.54 0.49 0.48 0.49 0.47 0.45 0.45 0.46 0.42 0.42 0.43
0.37 0.32 0.33 0.32 0.39 0.44 0.39 0.43 0.47 0.49 0.49 0.62 0.68 0.74 0.78 0.77 0.77 0.77 0.74 0.74 0.70 0.65 0.69 0.70 0.65 0.59 0.59 0.61 0.58 0.55 0.52 0.49 0.46 0.47 0.47 0.47 0.53 0.57 0.52 0.51 0.51 0.50 0.50 0.46 0.47 0.48 0.47 0.41 0.43
0.30 0.36 0.38 0.37 0.33 0.26 0.40 0.24 0.43 0.49 0.47 0.45 0.52 0.60 0.64 0.66 0.66 0.64 0.60 0.54 0.53 0.55 0.57 0.53 0.53 0.56 0.58 0.59 0.54 0.49 0.45 0.41 0.46 0.47 0.47 0.54 0.58 0.52 0.51 0.53 0.53 0.52 0.52 0.50 0.50 0.53 0.52 0.51 0.43
0.30 0.37 0.35 0.36 0.31 0.28 0.26 0.21 0.23 0.36 0.34 0.35 0.37 0.40 0.50 0.57 0.54 0.51 0.49 0.52 0.53 0.52 0.50 0.49 0.50 0.53 0.56 0.56 0.54 0.50 0.46 0.49 0.49 0.49 0.53 0.50 0.47 0.51 0.50 0.49 0.49 0.50 0.52 0.53 0.53 0.52 0.52 0.54 0.49
0.37 0.36 0.37 0.35 0.28 0.19 0.24 0.22 0.19 0.21 0.26 0.32 0.34 0.35 0.38 0.42 0.46 0.48 0.51 0.51 0.47 0.49 0.48 0.48 0.49 0.50 0.53 0.54 0.53 0.51 0.48 0.46 0.49 0.48 0.40 0.43 0.45 0.45 0.46 0.47 0.48 0.49 0.50 0.50 0.51 0.53 0.52 0.52 0.52
0.40 0.36 0.27 0.24 0.20 0.16 0.25 0.22 0.22 0.25 0.28 0.29 0.28 0.30 0.35 0.40 0.43 0.45 0.44 0.42 0.42 0.43 0.45 0.47 0.48 0.48 0.53 0.53 0.52 0.51 0.52 0.50 0.43 0.42 0.42 0.41 0.39 0.39 0.40 0.43 0.43 0.44 0.47 0.48 0.50 0.50 0.51 0.51 0.50
0.34 0.33 0.22 0.15 0.15 0.17 0.23 0.16 0.19 0.32 0.34 0.32 0.32 0.34 0.37 0.38 0.41 0.40 0.40 0.42 0.44 0.45 0.48 0.50 0.49 0.48 0.51 0.53 0.51 0.52 0.49 0.46 0.46 0.45 0.43 0.40 0.39 0.40 0.42 0.43 0.43 0.42 0.43 0.44 0.47 0.48 0.49 0.51 0.52
0.29 0.21 0.30 0.20 0.23 0.18 0.18 0.20 0.29 0.31 0.33 0.32 0.32 0.35 0.37 0.39 0.40 0.40 0.43 0.46 0.48 0.48 0.48 0.48 0.49 0.50 0.51 0.51 0.47 0.44 0.45 0.45 0.43 0.42 0.41 0.39 0.40 0.39 0.40 0.39 0.38 0.40 0.41 0.42 0.43 0.45 0.46 0.49 0.50
0.27 0.29 0.21 0.23 0.15 0.15 0.16 0.16 0.17 0.24 0.24 0.30 0.31 0.33 0.36 0.37 0.39 0.41 0.44 0.46 0.48 0.50 0.51 0.52 0.51 0.47 0.45 0.43 0.44 0.44 0.44 0.43 0.41 0.40 0.39 0.40 0.43 0.44 0.46 0.48 0.48 0.47 0.47 0.46 0.45 0.44 0.46 0.46 0.48
0.24 0.21 0.21 0.22 0.21 0.15 0.13 0.17 0.25 0.25 0.27 0.25 0.28 0.31 0.32 0.35 0.39 0.42 0.45 0.45 0.45 0.44 0.42 0.41 0.41 0.41 0.42 0.44 0.45 0.45 0.45 0.46 0.47 0.47 0.49 0.49 0.48 0.50 0.50 0.50 0.50 0.49 0.49 0.49 0.49 0.48 0.48 0.48 0.48
0.26 0.22 0.22 0.16 0.14 0.17 0.16 0.18 0.27 0.28 0.28 0.28 0.29 0.32 0.35 0.39 0.40 0.42 0.43 0.42 0.41 0.41 0.42 0.41 0.43 0.45 0.47 0.48 0.47 0.48 0.49 0.50 0.49 0.49 0.48 0.49 0.48 0.50 0.50 0.50 0.49 0.48 0.48 0.49 0.49 0.47 0.48 0.48 0.46
Wind_Speed
33 28 25 23 19 17 18 18 16 16 12 10 9 9 8 5 4 4 7 9 11 9 9 7 6 5 4 3 3 3 3 4 4 5 6 7 7 8 8 9 9 10 10 11 11 11 11 11 11
34 32 27 25 23 21 21 19 18 16 16 14 10 9 6 5 5 7 9 11 10 10 8 7 5 4 3 3 2 2 3 4 4 5 6 7 7 8 9 9 10 11 11 12 12 12 12 13 13
35 34 30 28 27 26 22 20 19 18 18 15 12 9 8 7 7 8 10 10 9 9 8 6 5 4 3 2 1 2 3 4 5 5 6 7 8 9 9 10 11 12 13 13 14 14 14 14 14
36 34 32 31 31 29 26 21 19 20 17 14 15 10 9 8 9 9 11 10 9 9 7 6 4 3 2 1 1 2 3 4 5 6 7 8 9 9 10 11 12 13 14 15 15 15 15 15 15
37 35 35 34 34 30 27 24 22 20 18 17 16 14 11 9 11 12 11 10 9 8 6 5 4 2 1 1 1 2 3 4 5 6 7 8 9 10 11 12 13 14 16 16 16 16 16 16 17
36 37 36 37 35 32 30 28 23 22 20 19 16 15 12 13 13 12 11 9 8 7 6 5 4 2 2 2 2 3 4 5 6 7 8 9 9 10 12 13 14 16 16 17 16 16 17 17 18
37 36 36 37 36 33 33 28 27 25 22 20 20 16 15 15 14 13 11 9 7 7 6 6 4 3 3 3 3 4 5 6 7 8 9 10 10 11 13 14 15 16 18 18 18 18 19 19 20
37 36 35 36 38 35 33 28 27 26 23 22 20 19 18 18 16 14 12 10 8 7 7 7 6 5 4 4 4 5 5 6 7 8 9 10 11 12 14 16 17 18 19 19 19 20 20 21 22
37 34 35 36 36 35 32 30 27 27 25 23 20 18 19 20 17 15 13 11 9 7 7 8 7 7 6 5 5 6 7 7 8 9 10 11 12 13 15 17 18 19 20 20 21 22 23 24 24
37 36 36 34 32 33 32 31 29 28 27 23 21 18 20 20 18 16 15 13 10 9 7 8 8 8 7 6 6 7 7 8 9 10 11 12 13 15 17 18 19 20 20 21 23 24 25 25 27
37 36 35 33 32 31 32 32 29 29 26 26 25 24 22 20 19 18 16 15 12 10 8 8 8 8 8 7 7 8 8 9 10 11 12 13 14 16 18 18 19 20 22 24 25 25 26 27 28
33 36 35 33 32 30 33 30 30 29 28 26 26 25 23 21 19 19 17 15 13 12 10 10 10 9 9 8 8 9 9 10 10 11 12 13 15 16 18 19 21 22 24 25 26 27 29 30 31
30 32 34 34 32 33 35 35 29 29 26 26 26 24 23 21 19 18 17 16 14 13 12 11 11 10 10 9 9 9 10 10 11 12 13 14 15 17 19 21 22 24 25 27 28 29 31 32 32
26 29 31 32 32 33 36 36 34 30 28 25 27 26 24 23 21 20 18 17 16 14 14 12 12 12 11 11 10 10 11 12 13 13 15 15 17 18 20 22 23 25 27 29 30 31 32 33 33
22 26 28 30 30 31 36 35 35 32 28 28 26 26 25 24 22 22 19 18 17 16 15 14 14 13 12 12 12 12 12 13 14 15 15 17 18 19 21 23 25 27 29 30 31 32 34 34 31
20 23 25 25 30 29 34 36 34 35 31 28 29 27 25 24 23 21 20 19 18 17 17 16 15 14 14 13 13 13 14 15 15 16 17 18 19 21 23 25 26 29 30 31 32 33 33 31 30
22 22 25 22 28 28 31 32 34 33 31 29 29 27 25 22 22 21 21 19 19 18 17 17 16 16 15 15 15 15 15 16 17 18 19 20 21 22 24 26 28 30 30 31 32 32 29 29 28
21 21 23 23 25 25 27 28 31 30 31 26 28 25 24 21 21 20 19 19 19 18 18 17 17 16 16 16 16 16 17 18 18 19 20 21 22 24 25 28 29 30 30 31 31 28 27 27 26
21 19 22 20 23 23 24 26 30 29 27 28 26 24 25 21 20 19 18 18 18 18 18 18 18 18 17 17 17 18 18 19 19 21 22 23 24 25 27 29 30 30 30 30 28 26 25 24 24
18 20 19 19 23 22 22 21 24 25 25 25 24 23 23 20 19 18 18 18 18 19 19 19 19 19 19 19 19 19 19 20 21 22 23 24 25 27 29 30 30 29 29 27 24 24 24 22 22
13 19 20 21 22 19 22 18 24 25 25 25 23 21 21 21 20 19 19 18 18 18 19 20 20 20 20 20 20 20 20 21 22 22 23 24 26 28 29 30 30 29 27 24 23 23 23 22 21
11 14 19 20 21 22 20 21 25 26 26 24 23 23 22 20 19 19 19 18 18 19 20 20 20 20 20 20 20 21 21 22 23 23 24 26 28 29 29 30 30 27 24 23 23 23 22 22 21
11 11 18 17 18 19 18 15 22 25 26 26 23 21 20 20 19 19 18 17 17 18 18 19 19 19 20 20 20 21 22 23 24 25 26 28 28 29 30 30 27 24 24 25 24 24 23 22 21
9 13 13 15 16 16 17 17 16 22 23 23 21 20 19 18 18 18 18 18 18 18 18 18 19 19 19 20 21 21 22 23 25 26 28 29 30 31 30 27 24 25 26 26 25 25 24 23 22
12 14 12 11 12 16 15 15 15 16 17 19 21 19 18 18 18 18 18 17 17 17 18 18 18 19 20 20 21 22 23 24 26 28 29 31 31 29 26 25 25 26 27 27 26 26 25 24 24
13 14 14 14 15 14 13 15 11 12 14 14 16 17 17 16 17 17 17 17 17 17 17 18 18 19 20 21 22 23 24 26 28 29 30 30 28 27 27 27 27 28 28 27 27 27 27 26 26
12 11 9 13 10 10 13 10 9 9 10 11 13 14 15 15 15 16 16 17 17 17 18 19 19 20 21 22 23 25 26 28 30 30 30 29 29 29 28 28 28 29 29 28 28 28 28 27 28
11 12 8 9 10 9 10 9 9 8 10 11 12 13 13 14 14 14 15 16 17 18 18 19 21 22 23 24 26 27 29 30 31 31 30 30 29 29 29 29 29 30 30 30 30 29 29 29 28
9 8 7 8 8 9 10 7 7 7 8 11 11 12 12 13 14 15 16 17 18 19 21 22 23 24 26 27 29 30 31 31 31 30 31 30 30 30 31 31 32 32 32 32 32 31 31 31 31
7 7 7 7 7 6 7 7 6 6 5 7 9 10 11 13 14 15 17 19 20 22 23 24 26 27 29 30 31 31 31 31 32 32 32 31 32 33 34 34 35 35 35 35 34 34 34 34 33
Wind_Direction
221 222 220 216 213 214 214 214 210 198 197 202 186 168 164 153 163 173 149 152 149 152 151 148 142 134 123 109 91 71 49 29 18 10 6 5 4 2 358 354 352 350 347 342 338 334 330 325 321
219 218 217 217 213 211 215 212 208 205 188 184 180 184 177 172 163 147 147 154 152 152 151 148 144 138 128 113 87 53 23 12 9 4 360 356 354 352 350 348 345 343 342 338 334 331 329 326 321
216 215 215 216 216 212 209 209 207 197 195 202 196 192 188 177 159 158 159 158 157 156 152 148 145 143 134 112 66 26 19 1 356 355 354 352 350 348 346 344 342 339 337 333 330 326 323 320 317
213 214 217 218 217 215 208 210 205 200 201 204 191 195 193 195 183 172 160 160 160 162 160 156 150 147 148 126 46 8 352 351 349 348 347 345 344 343 341 340 339 336 333 329 326 323 321 319 317
211 213 216 219 217 214 212 211 210 212 208 204 202 201 201 195 175 168 166 166 168 171 173 174 174 177 189 250 316 334 339 341 341 340 340 339 339 340 339 338 337 334 331 328 326 324 321 319 316
211 212 215 216 215 213 213 212 213 210 207 205 201 198 203 190 180 178 177 173 176 182 186 189 190 208 235 267 295 314 326 330 332 334 336 336 336 336 335 335 334 333 333 331 328 325 323 321 318
211 212 217 214 213 212 211 210 211 208 206 209 201 205 204 197 193 189 187 186 190 194 202 203 216 235 257 271 288 304 314 322 328 330 332 332 331 331 332 332 332 331 331 329 327 324 321 319 317
210 212 214 214 210 212 210 210 211 208 209 201 206 210 206 202 198 197 197 200 201 208 214 222 234 247 257 267 285 300 310 317 322 325 328 329 331 331 330 330 330 329 328 327 323 322 320 319 317
209 212 213 213 208 207 209 208 211 211 206 211 213 211 205 198 200 199 201 203 208 217 228 233 240 246 253 265 278 297 308 312 316 321 325 327 329 329 330 330 329 327 327 326 324 321 318 316 315
208 210 211 212 210 206 209 206 207 208 209 210 207 208 199 200 202 205 206 210 216 223 236 241 240 242 251 263 274 292 305 310 313 317 320 322 325 326 326 327 328 328 327 326 324 321 318 315 313
208 211 210 210 209 208 206 208 210 206 211 212 207 203 200 203 207 209 211 214 221 229 240 240 241 243 251 262 272 290 300 306 311 315 318 321 322 325 328 327 328 328 328 326 324 322 319 316 313
208 210 208 208 205 208 207 206 207 209 210 207 203 204 206 207 209 211 214 219 223 233 240 243 244 246 251 262 275 286 296 304 310 314 318 323 324 326 328 329 329 328 327 325 324 321 320 317 313
207 208 210 210 212 212 211 206 203 208 208 202 205 207 209 212 214 217 217 222 228 236 240 244 245 247 253 262 273 284 293 302 306 310 315 318 322 324 326 327 327 326 326 325 323 322 319 317 314
209 208 207 208 210 212 208 209 205 208 205 202 204 209 214 216 217 219 222 226 233 237 240 244 247 247 255 262 270 281 291 298 303 307 311 315 318 321 324 325 325 326 326 324 323 322 320 318 315
203 204 206 209 209 210 202 206 209 206 206 203 206 211 215 217 220 221 225 230 234 238 240 245 246 249 258 263 270 280 290 296 301 304 308 312 315 318 321 323 324 324 325 324 324 323 322 319 317
196 195 196 204 204 201 199 205 206 205 206 210 210 217 217 219 221 223 227 232 237 239 242 245 246 251 257 263 272 281 288 294 297 302 306 309 313 315 318 321 322 323 324 324 324 324 324 323 321
193 193 194 199 198 200 200 202 206 207 209 211 213 216 216 217 222 226 229 232 236 241 242 245 246 252 257 264 272 280 287 293 295 299 303 306 309 312 315 318 320 322 323 324 325 326 327 327 327
187 194 192 195 195 195 196 200 201 205 207 209 210 212 213 217 222 225 230 233 237 241 243 245 247 252 258 265 273 279 286 291 294 297 301 304 306 310 313 316 319 320 321 324 326 327 329 332 332
185 187 188 196 193 189 193 198 201 204 204 207 207 209 214 219 224 227 229 233 237 240 242 244 247 253 259 265 273 279 285 290 293 297 300 302 305 308 312 314 316 318 319 322 325 327 330 334 336
193 184 188 192 190 188 190 196 198 199 203 202 205 211 216 219 223 227 231 235 238 242 244 246 250 255 260 267 273 279 284 289 293 297 300 302 305 308 310 312 314 315 317 320 322 328 329 331 334
173 180 188 187 185 189 189 199 200 201 202 206 211 214 221 222 224 228 233 238 243 245 246 248 252 257 262 268 274 279 284 289 293 297 300 303 305 307 309 311 312 313 314 316 318 323 325 325 328
174 183 185 180 184 188 191 204 207 206 205 210 213 218 222 223 226 230 235 242 248 250 250 252 255 258 264 268 274 279 284 288 292 296 299 302 305 307 309 309 310 309 310 312 314 316 319 320 320
169 182 182 179 183 187 202 198 210 207 212 211 215 218 222 222 224 231 238 245 251 251 252 255 257 260 264 269 275 280 284 288 292 295 299 302 304 306 308 308 307 305 306 307 310 310 311 313 314
165 164 163 177 183 193 197 191 210 205 208 214 216 219 219 221 226 234 242 248 252 254 256 258 259 262 266 272 276 280 284 288 293 296 299 302 303 305 305 305 303 304 305 306 305 305 305 305 307
154 155 163 172 180 186 192 190 209 205 208 214 213 214 218 223 230 237 243 248 252 255 257 259 262 266 269 273 277 281 285 290 294 297 300 302 303 303 302 301 301 302 303 303 303 302 302 301 300
149 158 157 167 169 181 178 191 199 195 208 211 207 209 217 225 233 238 243 248 253 257 260 263 265 268 271 275 279 284 288 291 294 297 299 300 300 300 300 299 300 301 301 300 300 299 299 297 296
152 143 158 146 155 157 177 189 188 192 197 194 198 210 222 232 236 241 246 251 256 259 263 265 268 271 274 279 282 286 289 292 295 296 297 296 297 298 297 298 298 299 299 299 299 298 297 296 294
140 151 139 145 155 167 179 176 185 200 205 204 207 217 228 236 239 244 250 255 260 263 267 270 272 274 277 280 284 287 290 292 293 294 294 295 294 295 296 296 297 297 297 297 297 296 295 295 294
149 141 125 145 161 165 166 188 189 198 207 207 216 225 232 238 243 249 255 260 265 269 272 274 275 277 279 282 285 288 290 291 292 293 293 293 293 294 295 295 296 296 296 295 294 293 292 293 292
160 156 148 152 175 163 166 200 201 207 201 203 222 235 244 248 254 259 265 269 272 274 275 276 278 280 282 284 286 287 289 291 292 292 292 291 292 292 294 294 294 294 294 294 293 292 291 290 290